GW7221 Weather Reports


time (UTC)temp
C
wind
direction
speed
KPH
gust
KPH
rain 1hr
cm
rain 24hr
cm
rain mn
cm
humidity
%
barometer
mb
20260508214845 12 78 0.0 0.0 0.00 0.00 0.13 94 1030.8
20260508214345 12 78 0.0 0.0 0.00 0.00 0.13 94 1030.5
20260508213846 12 78 1.6 1.6 0.00 0.00 0.13 94 1030.5
20260508213345 13 92 0.0 1.6 0.00 0.00 0.13 94 1030.8
20260508212845 13 88 1.6 1.6 0.00 0.00 0.13 94 1030.8
20260508212346 13 96 1.6 4.8 0.00 0.00 0.13 94 1030.8
20260508211845 12 106 3.2 8.0 0.00 0.00 0.13 95 1030.5
20260508211347 12 90 0.0 0.0 0.00 0.00 0.13 94 1030.5
20260508210845 12 90 0.0 0.0 0.00 0.00 0.13 94 1030.5
20260508210345 12 90 0.0 0.0 0.00 0.00 0.13 94 1030.1
20260508205845 12 90 0.0 0.0 0.00 0.00 0.13 94 1030.1
20260508205346 12 90 1.6 3.2 0.00 0.00 0.13 94 1030.1
20260508204845 12 87 0.0 0.0 0.00 0.00 0.13 94 1030.1
20260508204346 12 88 0.0 1.6 0.00 0.00 0.13 94 1030.1
20260508203846 12 88 1.6 3.2 0.00 0.00 0.13 95 1030.1
20260508203345 12 93 0.0 0.0 0.00 0.00 0.13 94 1030.5
20260508202845 12 93 0.0 0.0 0.00 0.00 0.13 94 1030.1
20260508202345 12 93 0.0 0.0 0.00 0.00 0.13 94 1030.5
20260508201846 12 93 0.0 0.0 0.00 0.00 0.13 94 1030.1
20260508201346 12 93 0.0 0.0 0.00 0.00 0.13 94 1030.1
20260508200846 12 93 0.0 0.0 0.00 0.00 0.13 94 1030.1
20260508200345 13 94 0.0 0.0 0.00 0.00 0.13 94 1030.1
20260508195846 13 93 0.0 0.0 0.00 0.00 0.13 94 1029.8
20260508195346 12 94 0.0 3.2 0.03 0.00 0.13 94 1030.1
20260508194846 12 83 0.0 0.0 0.03 0.00 0.13 94 1030.1
20260508194345 12 83 0.0 1.6 0.05 0.00 0.13 94 1030.1
20260508193846 12 75 0.0 0.0 0.05 0.00 0.13 94 1029.8
20260508193345 12 75 0.0 0.0 0.05 0.00 0.13 94 1030.5
20260508192846 12 75 0.0 0.0 0.08 0.00 0.13 94 1029.8
20260508192345 12 75 0.0 0.0 0.10 0.00 0.13 94 1030.1
20260508191845 13 75 0.0 0.0 0.13 0.00 0.13 94 1029.8
20260508191347 13 75 0.0 1.6 0.13 0.00 0.13 93 1029.8
20260508190845 13 76 1.6 3.2 0.13 0.00 0.13 94 1029.8
20260508190345 13 87 1.6 3.2 0.13 0.00 0.13 93 1029.8
20260508185845 13 82 1.6 1.6 0.10 0.00 0.13 93 1029.8
20260508185346 13 79 1.6 3.2 0.10 0.00 0.13 93 1029.8
20260508184846 13 111 4.8 4.8 0.08 0.00 0.10 93 1029.8
20260508184345 13 92 1.6 4.8 0.08 0.00 0.10 93 1030.1
20260508183845 13 101 4.8 8.0 0.08 0.00 0.08 93 1030.1
20260508183348 13 105 6.4 8.0 0.05 0.00 0.08 93 1029.8
20260508182847 13 129 4.8 9.7 0.05 0.00 0.08 92 1030.1
20260508182346 13 121 3.2 3.2 0.03 0.00 0.05 92 1029.8
20260508181846 13 102 3.2 8.0 0.00 0.00 0.03 92 1029.8
20260508181346 14 121 6.4 9.7 0.00 0.00 0.00 91 1029.8
20260508180845 14 145 6.4 11.3 0.00 0.00 0.00 91 1029.8
20260508180346 13 140 9.7 12.9 0.00 0.00 0.00 91 1029.8
20260508175846 13 165 3.2 4.8 0.00 0.00 0.00 90 1029.8
20260508175347 13 132 1.6 1.6 0.00 0.00 0.00 90 1029.8
20260508174847 13 147 3.2 4.8 0.00 0.00 0.00 91 1029.8
20260508174346 13 119 1.6 3.2 0.00 0.00 0.00 91 1029.8
20260508173845 13 104 1.6 4.8 0.00 0.00 0.00 90 1029.8
20260508173346 13 97 3.2 8.0 0.00 0.00 0.00 91 1029.8
20260508172845 13 119 6.4 9.7 0.00 0.00 0.00 91 1030.1
20260508172346 13 97 6.4 8.0 0.00 0.00 0.00 92 1029.8
20260508171845 13 85 1.6 1.6 0.00 0.00 0.00 90 1029.8
20260508171346 13 86 1.6 3.2 0.00 0.00 0.00 90 1030.1
20260508170846 13 104 3.2 3.2 0.00 0.00 0.00 90 1030.1
20260508170346 13 97 3.2 4.8 0.00 0.00 0.00 90 1030.1
20260508165846 13 97 3.2 4.8 0.00 0.00 0.00 90 1030.1
20260508165345 13 110 3.2 4.8 0.00 0.00 0.00 90 1030.1
20260508164846 13 97 3.2 3.2 0.00 0.00 0.00 90 1030.1
20260508164351 13 129 1.6 3.2 0.00 0.00 0.00 90 1030.1
20260508163846 13 148 0.0 1.6 0.00 0.00 0.00 90 1030.1
20260508163346 14 148 1.6 1.6 0.00 0.00 0.00 90 1030.1
20260508162846 14 145 1.6 3.2 0.00 0.00 0.00 90 1030.1
20260508162346 14 139 3.2 4.8 0.00 0.00 0.00 90 1030.1
20260508161846 14 132 1.6 4.8 0.00 0.00 0.00 89 1030.5
20260508161345 14 131 3.2 4.8 0.00 0.00 0.00 89 1030.5
20260508160847 15 108 3.2 9.7 0.00 0.00 0.00 87 1030.1
20260508160346 15 150 12.9 16.1 0.00 0.00 0.00 85 1030.5
20260508155846 15 155 8.0 12.9 0.00 0.00 0.00 84 1030.5
20260508155345 15 146 9.7 11.3 0.00 0.00 0.00 85 1030.1
20260508154846 15 155 4.8 8.0 0.00 0.00 0.00 84 1030.5
20260508154345 15 131 6.4 8.0 0.00 0.00 0.00 84 1030.5
20260508153845 15 126 9.7 12.9 0.00 0.00 0.00 83 1030.5
20260508153345 15 156 9.7 20.9 0.00 0.00 0.00 83 1030.5
20260508152846 15 176 12.9 16.1 0.00 0.00 0.00 85 1030.5
20260508152346 15 156 4.8 9.7 0.00 0.00 0.00 86 1030.1
20260508151845 15 132 8.0 11.3 0.00 0.00 0.00 86 1030.5
20260508151346 15 117 4.8 9.7 0.00 0.00 0.00 86 1030.5
20260508150846 15 108 6.4 9.7 0.00 0.00 0.00 85 1030.5
20260508150351 15 149 4.8 8.0 0.00 0.00 0.00 83 1030.5
20260508145846 15 161 4.8 11.3 0.00 0.00 0.00 83 1030.5
20260508145346 15 170 4.8 4.8 0.00 0.00 0.00 83 1030.5
20260508144845 15 152 6.4 9.7 0.00 0.00 0.00 84 1030.5
20260508144345 15 156 6.4 9.7 0.00 0.00 0.00 84 1030.5
20260508143846 15 157 3.2 9.7 0.00 0.00 0.00 84 1030.5
20260508143346 15 149 8.0 11.3 0.00 0.00 0.00 84 1030.5
20260508142845 15 158 9.7 14.5 0.00 0.00 0.00 85 1030.5
20260508142345 15 161 8.0 8.0 0.00 0.00 0.00 86 1030.5
20260508141846 15 147 6.4 11.3 0.00 0.00 0.00 86 1030.5
20260508141346 15 152 8.0 9.7 0.00 0.00 0.00 86 1030.5
20260508140846 15 160 4.8 8.0 0.00 0.00 0.00 87 1030.8
20260508140347 14 150 6.4 8.0 0.00 0.00 0.00 87 1030.8
20260508135845 14 163 6.4 8.0 0.00 0.00 0.00 88 1030.8
20260508135348 14 149 3.2 4.8 0.00 0.00 0.00 89 1030.8
20260508134846 14 163 3.2 8.0 0.00 0.00 0.00 89 1031.2
20260508133903 14 145 4.8 8.0 0.00 0.00 0.00 90 1031.2
20260508133345 14 151 4.8 4.8 0.00 0.00 0.00 90 1031.2
20260508132847 13 151 3.2 8.0 0.00 0.00 0.00 91 1031.2
20260508132346 13 167 1.6 4.8 0.00 0.00 0.00 91 1031.2
20260508131847 13 184 3.2 3.2 0.00 0.00 0.00 91 1031.2
20260508131345 13 187 3.2 3.2 0.00 0.00 0.00 90 1031.2
20260508130846 13 172 3.2 3.2 0.00 0.00 0.00 91 1031.2
20260508130346 13 174 3.2 3.2 0.00 0.00 0.00 90 1031.2
20260508125845 13 179 3.2 4.8 0.00 0.00 0.00 90 1031.2
20260508125346 13 170 4.8 8.0 0.00 0.00 0.00 90 1031.2
20260508124845 13 157 6.4 9.7 0.00 0.00 0.00 91 1031.2
20260508124345 13 132 8.0 11.3 0.00 0.00 0.00 91 1031.2
20260508123845 13 144 8.0 14.5 0.00 0.00 0.00 91 1031.2
20260508123345 14 135 9.7 14.5 0.00 0.00 0.00 91 1031.2
20260508122846 14 159 3.2 4.8 0.00 0.00 0.00 91 1031.2
20260508122345 13 152 3.2 8.0 0.00 0.00 0.00 91 1031.2
20260508121845 14 152 6.4 9.7 0.00 0.00 0.00 91 1031.2
20260508121346 13 130 6.4 11.3 0.00 0.00 0.00 90 1031.2
20260508120846 14 130 8.0 11.3 0.00 0.00 0.00 90 1031.2
20260508120346 14 138 6.4 11.3 0.00 0.00 0.00 89 1031.5
20260508115845 14 93 11.3 12.9 0.00 0.00 0.00 89 1031.5
20260508115346 14 119 6.4 9.7 0.00 0.00 0.00 88 1031.5
20260508114846 14 140 8.0 9.7 0.00 0.00 0.00 88 1031.5
20260508114346 14 91 6.4 9.7 0.00 0.00 0.00 88 1031.5
20260508113846 14 122 4.8 8.0 0.00 0.00 0.00 88 1031.5
20260508113345 15 123 4.8 8.0 0.00 0.00 0.00 87 1031.2
20260508112846 14 144 8.0 12.9 0.00 0.00 0.00 87 1031.5
20260508112345 14 144 6.4 9.7 0.00 0.00 0.00 87 1031.5
20260508111845 14 170 4.8 9.7 0.00 0.00 0.00 88 1031.5
20260508111345 13 155 4.8 9.7 0.00 0.00 0.00 89 1031.5
20260508110845 13 165 9.7 11.3 0.00 0.00 0.00 90 1031.5
20260508110345 13 198 3.2 3.2 0.00 0.00 0.00 90 1031.5
20260508105846 13 222 1.6 1.6 0.00 0.00 0.00 89 1031.5
20260508105345 13 191 1.6 3.2 0.00 0.00 0.00 89 1031.5
20260508104845 13 204 1.6 4.8 0.00 0.00 0.00 88 1031.5
20260508104347 13 184 3.2 4.8 0.00 0.00 0.00 88 1031.5
20260508103846 13 188 6.4 9.7 0.00 0.00 0.00 88 1031.5
20260508103345 14 169 6.4 11.3 0.00 0.00 0.00 87 1031.5
20260508102846 14 211 8.0 12.9 0.00 0.00 0.00 87 1031.5
20260508102345 14 157 9.7 11.3 0.00 0.00 0.00 86 1031.5
20260508101846 13 181 8.0 11.3 0.00 0.00 0.00 86 1031.5
20260508101345 14 171 4.8 11.3 0.00 0.00 0.00 87 1031.5
20260508100846 13 150 8.0 12.9 0.00 0.00 0.00 86 1031.5
20260508100346 14 124 8.0 12.9 0.00 0.00 0.00 86 1031.5
20260508095848 14 155 14.5 17.7 0.00 0.00 0.00 87 1031.8
20260508095345 15 129 11.3 20.9 0.00 0.00 0.00 86 1031.5
20260508094847 15 158 19.3 24.1 0.00 0.00 0.00 83 1031.5
20260508094346 15 165 8.0 14.5 0.00 0.00 0.00 79 1031.5
20260508093845 15 183 12.9 16.1 0.00 0.00 0.00 79 1031.8
20260508093345 15 160 12.9 16.1 0.00 0.00 0.00 77 1031.5
20260508092845 15 175 11.3 14.5 0.00 0.00 0.00 76 1031.5
20260508092346 15 169 9.7 11.3 0.00 0.00 0.00 76 1031.5
20260508091845 15 139 8.0 14.5 0.00 0.00 0.00 76 1031.5
20260508091345 15 146 11.3 12.9 0.00 0.00 0.00 76 1031.5
20260508090846 15 162 8.0 11.3 0.00 0.00 0.00 79 1031.2
20260508090346 15 147 9.7 11.3 0.00 0.00 0.00 79 1031.5
20260508085846 15 159 8.0 17.7 0.00 0.00 0.00 80 1031.2
20260508085346 15 172 11.3 20.9 0.00 0.00 0.00 79 1031.2
20260508084845 16 157 8.0 16.1 0.00 0.00 0.00 78 1031.2
20260508084345 16 158 11.3 14.5 0.00 0.00 0.00 74 1031.2
20260508083846 16 169 11.3 12.9 0.00 0.00 0.00 73 1031.2
20260508083345 16 164 8.0 16.1 0.00 0.00 0.00 72 1031.2
20260508082847 16 153 6.4 12.9 0.00 0.00 0.00 71 1030.8
20260508082346 16 184 8.0 11.3 0.00 0.00 0.00 72 1030.8
20260508081845 16 146 9.7 12.9 0.00 0.00 0.00 71 1031.2
20260508081345 16 154 8.0 12.9 0.00 0.00 0.00 71 1031.2
20260508080846 16 165 8.0 12.9 0.00 0.00 0.00 72 1031.2
20260508080345 16 167 6.4 14.5 0.00 0.00 0.00 72 1031.2
20260508075845 16 150 8.0 12.9 0.00 0.00 0.00 73 1030.8
20260508075347 16 177 9.7 11.3 0.00 0.00 0.00 73 1031.2
20260508074846 16 149 6.4 9.7 0.00 0.00 0.00 73 1031.2
20260508074346 16 222 9.7 11.3 0.00 0.00 0.00 74 1031.2
20260508073847 16 156 8.0 12.9 0.00 0.00 0.00 73 1031.2
20260508073346 16 157 9.7 11.3 0.00 0.00 0.00 73 1031.2
20260508072846 16 163 11.3 12.9 0.00 0.00 0.00 73 1031.2
20260508072346 16 183 9.7 12.9 0.00 0.00 0.00 73 1031.2
20260508071845 16 184 8.0 14.5 0.00 0.00 0.00 71 1031.5
20260508071346 16 187 9.7 12.9 0.00 0.00 0.00 71 1031.2
20260508070846 16 155 14.5 17.7 0.00 0.00 0.00 72 1031.2
20260508070346 16 170 11.3 17.7 0.00 0.00 0.00 74 1031.2
20260508065846 16 202 11.3 16.1 0.00 0.00 0.00 74 1031.2
20260508065346 16 145 14.5 16.1 0.00 0.00 0.00 73 1031.2
20260508064845 16 157 14.5 16.1 0.00 0.00 0.00 73 1031.5
20260508064347 16 183 12.9 20.9 0.00 0.00 0.00 72 1031.2
20260508063845 16 179 9.7 12.9 0.00 0.00 0.00 73 1031.2
20260508063346 16 143 11.3 14.5 0.00 0.00 0.00 73 1031.2
20260508062846 16 173 9.7 12.9 0.00 0.00 0.00 73 1031.2
20260508062345 16 166 8.0 12.9 0.00 0.00 0.00 71 1031.2
20260508061846 16 169 9.7 12.9 0.00 0.00 0.00 72 1031.2
20260508061346 16 156 4.8 11.3 0.00 0.00 0.00 71 1031.2
20260508060845 16 154 4.8 9.7 0.00 0.00 0.00 70 1031.2
20260508060346 16 179 8.0 9.7 0.00 0.00 0.00 70 1031.2
20260508055847 16 167 4.8 8.0 0.00 0.00 0.00 72 1031.5
20260508055345 16 158 8.0 9.7 0.00 0.00 0.00 72 1031.2
20260508054845 16 151 8.0 9.7 0.00 0.00 0.00 72 1031.5
20260508054346 16 177 9.7 11.3 0.00 0.00 0.00 73 1031.2
20260508053846 16 175 8.0 9.7 0.00 0.00 0.00 74 1031.5
20260508053345 16 139 8.0 16.1 0.00 0.00 0.00 71 1031.2
20260508052845 16 199 6.4 16.1 0.00 0.00 0.00 69 1031.2
20260508052346 16 172 14.5 16.1 0.00 0.00 0.00 68 1031.2
20260508051845 16 196 8.0 16.1 0.00 0.00 0.00 69 1031.2
20260508051345 17 155 9.7 16.1 0.00 0.00 0.00 64 1031.2
20260508050846 17 162 8.0 14.5 0.00 0.00 0.00 64 1031.5
20260508050346 17 151 8.0 9.7 0.00 0.00 0.00 65 1031.2
20260508045845 17 161 8.0 14.5 0.00 0.00 0.00 65 1031.2
20260508045345 17 139 9.7 14.5 0.00 0.00 0.00 63 1031.2
20260508044846 17 136 11.3 14.5 0.00 0.00 0.00 63 1031.5
20260508044345 17 147 9.7 14.5 0.00 0.00 0.00 64 1031.2
20260508043846 17 154 8.0 11.3 0.00 0.00 0.00 67 1031.5
20260508043345 17 151 8.0 12.9 0.00 0.00 0.00 65 1031.5
20260508042846 17 116 8.0 12.9 0.00 0.00 0.00 68 1031.5
20260508042346 16 144 9.7 11.3 0.00 0.00 0.00 66 1031.5
20260508041845 16 157 9.7 14.5 0.00 0.00 0.00 68 1031.5
20260508041345 16 148 11.3 14.5 0.00 0.00 0.00 69 1031.8
20260508040846 16 156 8.0 12.9 0.00 0.00 0.00 69 1031.5
20260508040346 16 139 12.9 14.5 0.00 0.00 0.00 71 1031.8
20260508035845 16 175 8.0 11.3 0.00 0.00 0.00 70 1031.8
20260508035345 16 152 6.4 9.7 0.00 0.00 0.00 70 1031.8
20260508034846 16 199 6.4 9.7 0.00 0.00 0.00 69 1031.8
20260508034346 16 211 8.0 9.7 0.00 0.00 0.00 69 1031.8
20260508033846 16 193 8.0 14.5 0.00 0.00 0.00 69 1031.8
20260508033345 16 200 9.7 12.9 0.00 0.00 0.00 69 1032.2
20260508032845 16 165 11.3 16.1 0.00 0.00 0.00 68 1032.2
20260508032345 16 155 8.0 11.3 0.00 0.00 0.00 67 1032.2
20260508031846 16 176 9.7 11.3 0.00 0.00 0.00 67 1032.2
20260508031346 17 156 9.7 16.1 0.00 0.00 0.00 66 1032.2
20260508030845 17 199 11.3 14.5 0.00 0.00 0.00 65 1032.5
20260508030345 17 176 6.4 9.7 0.00 0.00 0.00 64 1032.2
20260508025845 17 183 6.4 11.3 0.00 0.00 0.00 64 1032.5
20260508025345 17 185 9.7 11.3 0.00 0.00 0.00 64 1032.5
20260508024847 17 142 4.8 9.7 0.00 0.00 0.00 66 1032.5
20260508024346 17 146 3.2 8.0 0.00 0.00 0.00 66 1032.5
20260508023850 17 140 8.0 9.7 0.00 0.00 0.00 64 1032.5
20260508023346 17 132 3.2 4.8 0.00 0.00 0.00 66 1032.5
20260508022845 16 164 4.8 4.8 0.00 0.00 0.00 67 1032.8
20260508022346 16 161 4.8 4.8 0.00 0.00 0.00 67 1032.8
20260508021846 16 157 3.2 9.7 0.00 0.00 0.00 69 1032.8
20260508021345 16 170 4.8 9.7 0.00 0.00 0.00 69 1032.8
20260508020845 16 165 4.8 8.0 0.00 0.00 0.00 68 1033.2
20260508020345 16 165 3.2 3.2 0.00 0.00 0.00 69 1032.8
20260508015846 16 154 3.2 4.8 0.00 0.00 0.00 69 1033.2
20260508015345 16 148 1.6 3.2 0.00 0.00 0.00 70 1033.2
20260508014846 16 111 1.6 3.2 0.00 0.00 0.00 70 1033.2
20260508014346 16 107 0.0 1.6 0.00 0.00 0.00 69 1033.2
20260508013846 16 101 1.6 1.6 0.00 0.00 0.00 71 1033.2
20260508013347 16 127 1.6 3.2 0.00 0.00 0.00 70 1033.2
20260508012846 16 132 4.8 3.2 0.00 0.00 0.00 69 1033.2
20260508012345 16 243 0.0 1.6 0.00 0.00 0.00 71 1033.2
20260508011845 16 268 1.6 3.2 0.00 0.00 0.00 70 1033.2
20260508011345 16 331 1.6 1.6 0.00 0.00 0.00 73 1033.5
20260508010846 16 331 0.0 3.2 0.00 0.00 0.00 74 1033.2
20260508010346 15 1 1.6 1.6 0.00 0.00 0.00 73 1033.5
20260508005845 15 359 1.6 1.6 0.00 0.00 0.00 73 1033.2
20260508005345 15 19 0.0 0.0 0.00 0.00 0.00 75 1033.5
20260508004846 15 19 0.0 1.6 0.00 0.00 0.00 74 1033.2
20260508004345 15 20 1.6 1.6 0.00 0.00 0.00 75 1033.2
20260508003845 15 2 1.6 1.6 0.00 0.00 0.00 76 1033.2
20260508003345 15 50 1.6 1.6 0.00 0.00 0.00 75 1033.2
20260508002845 15 88 1.6 3.2 0.00 0.00 0.00 75 1033.2
20260508002347 15 95 1.6 3.2 0.00 0.00 0.00 75 1033.2
20260508001845 15 93 0.0 1.6 0.00 0.00 0.00 75 1033.2
20260508000857 15 72 3.2 3.2 0.00 0.00 0.00 77 1033.2
20260508000345 15 72 0.0 1.6 0.00 0.00 0.00 78 1033.2
20260507235846 14 73 3.2 3.2 0.00 0.00 0.00 78 1033.2
20260507235345 14 68 1.6 3.2 0.00 0.00 0.00 78 1033.2
20260507234846 14 68 1.6 1.6 0.00 0.00 0.00 78 1033.5
20260507234345 14 66 1.6 1.6 0.00 0.00 0.00 80 1033.2
20260507233846 14 66 1.6 1.6 0.00 0.00 0.00 81 1033.2
20260507233346 13 66 1.6 3.2 0.00 0.00 0.00 81 1033.2
20260507232845 13 66 3.2 3.2 0.00 0.00 0.00 82 1032.8
20260507232345 13 68 0.0 1.6 0.00 0.00 0.00 82 1033.2
20260507231846 13 68 1.6 1.6 0.00 0.00 0.00 83 1033.2
20260507231345 13 73 1.6 3.2 0.00 0.00 0.00 83 1033.2
20260507230845 13 73 3.2 4.8 0.00 0.00 0.00 83 1033.2
20260507230345 13 69 1.6 4.8 0.00 0.00 0.00 83 1032.8
20260507225845 13 60 3.2 3.2 0.00 0.00 0.00 83 1032.8
20260507225346 13 61 1.6 4.8 0.00 0.00 0.00 82 1032.8
20260507224845 13 24 4.8 4.8 0.00 0.00 0.00 83 1032.8
20260507224346 13 357 1.6 1.6 0.00 0.00 0.00 83 1032.8
20260507223847 13 22 1.6 1.6 0.00 0.00 0.00 84 1032.8
20260507223347 13 348 1.6 3.2 0.00 0.00 0.00 84 1032.8
20260507222847 13 15 1.6 1.6 0.00 0.00 0.00 84 1032.5
20260507222345 13 14 1.6 1.6 0.00 0.00 0.00 84 1032.8
20260507221845 13 62 3.2 4.8 0.00 0.00 0.00 83 1032.8
20260507221345 13 75 3.2 4.8 0.00 0.00 0.00 82 1032.8
20260507220845 13 74 4.8 4.8 0.00 0.00 0.00 82 1032.8
20260507220345 13 99 1.6 3.2 0.00 0.00 0.00 83 1032.8
20260507215845 13 106 1.6 1.6 0.00 0.00 0.00 83 1032.5
20260507215345 13 104 1.6 3.2 0.00 0.00 0.00 83 1032.5